When you browse on this site, cookies collect data to enhance your experience and personalize the content and advertising you see.
Visit our Privacy Policy to learn more. By continuing to use the site, you agree to this use of cookies and data.
  • In United Kingdom
  • List of Countries
  • For 7 days
  • Water Temperature
  • Weather Map
  • Weather Widgets
  • user-avatar
    Login

    Hourly Weather Smolan

    Today, 17 November, Sunday

    Time Temperature Precipitation Wind Pressure Humidity
    00:00 +7°C° 0 mm 1 mps 657 mmHg 80%
    01:00 +7°C° 0 mm 1 mps 657 mmHg 78%
    02:00 +7°C° 0 mm 1 mps 657 mmHg 76%
    03:00 +7°C° 0 mm 1 mps 656 mmHg 74%
    04:00 +7°C° 0 mm 1 mps 656 mmHg 73%
    05:00 +7°C° 0 mm 1 mps 656 mmHg 71%
    06:00 +7°C° 0 mm 1 mps 656 mmHg 73%
    07:00 +7°C° 0 mm 1 mps 656 mmHg 75%
    08:00 +8°C° 0 mm 1 mps 656 mmHg 77%
    09:00 +9°C° 0 mm 1 mps 657 mmHg 73%
    10:00 +11°C° 0 mm 1 mps 657 mmHg 69%
    11:00 +13°C° 0 mm 1 mps 658 mmHg 65%
    12:00 +13°C° 0 mm 1 mps 658 mmHg 65%
    13:00 +13°C° 0 mm 1 mps 657 mmHg 65%
    14:00 +13°C° 0 mm 1 mps 657 mmHg 65%
    15:00 +12°C° 0 mm 1 mps 657 mmHg 73%
    16:00 +11°C° 0 mm 1 mps 656 mmHg 81%
    17:00 +9°C° 0 mm 1 mps 656 mmHg 89%
    18:00 +9°C° 0 mm 1 mps 656 mmHg 90%
    19:00 +8°C° 0 mm 1 mps 655 mmHg 92%
    20:00 +8°C° 0 mm 1 mps 655 mmHg 93%
    21:00 +8°C° 0 mm 1 mps 655 mmHg 92%
    22:00 +8°C° 0 mm 1 mps 655 mmHg 92%
    23:00 +8°C° 0 mm 1 mps 655 mmHg 92%

    Tomorrow, 18 November, Monday

    Time Temperature Precipitation Wind Pressure Humidity
    00:00 +8°C° 0 mm 1 mps 655 mmHg 92%
    01:00 +8°C° 0 mm 1 mps 655 mmHg 93%
    02:00 +8°C° 0 mm 1 mps 655 mmHg 94%
    03:00 +8°C° 0 mm 1 mps 655 mmHg 94%
    04:00 +7°C° 0 mm 2 mps 654 mmHg 93%
    05:00 +8°C° 0 mm 2 mps 654 mmHg 93%
    06:00 +8°C° 0.1 mm 2 mps 655 mmHg 93%
    07:00 +8°C° 0.1 mm 2 mps 655 mmHg 94%
    08:00 +8°C° 0.1 mm 2 mps 655 mmHg 94%
    09:00 +9°C° 0.2 mm 2 mps 655 mmHg 91%
    10:00 +9°C° 0.2 mm 2 mps 656 mmHg 88%
    11:00 +10°C° 0.2 mm 3 mps 656 mmHg 85%
    12:00 +11°C° 0.1 mm 3 mps 656 mmHg 80%
    13:00 +11°C° 0.1 mm 3 mps 657 mmHg 76%
    14:00 +12°C° 0.1 mm 3 mps 657 mmHg 71%
    15:00 +12°C° 0 mm 2 mps 656 mmHg 78%
    16:00 +9°C° 0 mm 2 mps 656 mmHg 85%
    17:00 +9°C° 0 mm 1 mps 656 mmHg 91%
    18:00 +9°C° 0 mm 1 mps 656 mmHg 92%
    19:00 +8°C° 0 mm 1 mps 656 mmHg 93%
    20:00 +8°C° 0 mm 1 mps 656 mmHg 94%
    21:00 +8°C° 0 mm 1 mps 656 mmHg 93%
    22:00 +8°C° 0 mm 1 mps 657 mmHg 91%
    23:00 +7°C° 0 mm 1 mps 657 mmHg 90%

    Day after tomorrow, 19 November, Tuesday

    Time Temperature Precipitation Wind Pressure Humidity
    00:00 +7°C° 0 mm 1 mps 657 mmHg 90%
    01:00 +7°C° 0 mm 1 mps 657 mmHg 90%
    02:00 +7°C° 0 mm 1 mps 657 mmHg 90%
    03:00 +7°C° 0 mm 1 mps 657 mmHg 91%
    04:00 +7°C° 0 mm 1 mps 657 mmHg 92%
    05:00 +8°C° 0 mm 1 mps 657 mmHg 94%
    06:00 +8°C° 0 mm 1 mps 657 mmHg 94%
    07:00 +8°C° 0 mm 1 mps 657 mmHg 95%
    08:00 +8°C° 0 mm 1 mps 657 mmHg 95%
    09:00 +9°C° 0 mm 1 mps 658 mmHg 92%
    10:00 +10°C° 0 mm 1 mps 658 mmHg 89%
    11:00 +10°C° 0 mm 2 mps 658 mmHg 85%
    12:00 +12°C° 0.1 mm 2 mps 658 mmHg 82%
    13:00 +12°C° 0.1 mm 2 mps 658 mmHg 78%
    14:00 +13°C° 0.1 mm 2 mps 658 mmHg 75%
    15:00 +10°C° 0 mm 2 mps 657 mmHg 80%
    16:00 +10°C° 0 mm 1 mps 657 mmHg 86%
    17:00 +9°C° 0 mm 1 mps 656 mmHg 92%
    18:00 +9°C° 0 mm 1 mps 656 mmHg 93%
    19:00 +9°C° 0 mm 1 mps 656 mmHg 93%
    20:00 +9°C° 0 mm 1 mps 656 mmHg 94%
    21:00 +9°C° 0.1 mm 1 mps 656 mmHg 94%
    22:00 +9°C° 0.1 mm 1 mps 656 mmHg 94%
    23:00 +9°C° 0.1 mm 1 mps 656 mmHg 94%

    20 November, Wednesday

    Time Temperature Precipitation Wind Pressure Humidity
    00:00 +9°C° 0.2 mm 1 mps 655 mmHg 93%
    01:00 +9°C° 0.2 mm 1 mps 655 mmHg 91%
    02:00 +8°C° 0.2 mm 1 mps 655 mmHg 90%
    03:00 +7°C° 0.2 mm 2 mps 655 mmHg 90%
    04:00 +7°C° 0.2 mm 2 mps 654 mmHg 91%
    05:00 +7°C° 0.2 mm 2 mps 654 mmHg 91%
    06:00 +7°C° 2.7 mm 2 mps 654 mmHg 93%
    07:00 +8°C° 2.7 mm 1 mps 654 mmHg 94%
    08:00 +8°C° 2.7 mm 1 mps 654 mmHg 96%
    09:00 +8°C° 0.5 mm 1 mps 654 mmHg 93%
    10:00 +9°C° 0.5 mm 1 mps 655 mmHg 90%
    11:00 +9°C° 0.5 mm 2 mps 655 mmHg 87%
    12:00 +9°C° 0.4 mm 2 mps 655 mmHg 82%
    13:00 +10°C° 0.4 mm 2 mps 655 mmHg 77%
    14:00 +10°C° 0.4 mm 2 mps 655 mmHg 72%
    15:00 +10°C° 0 mm 1 mps 654 mmHg 78%
    16:00 +9°C° 0 mm 1 mps 654 mmHg 83%
    17:00 +8°C° 0 mm 1 mps 654 mmHg 89%
    18:00 +7°C° 0 mm 1 mps 654 mmHg 90%
    19:00 +7°C° 0 mm 1 mps 654 mmHg 91%
    20:00 +6°C° 0 mm 1 mps 654 mmHg 92%
    21:00 +6°C° 0 mm 1 mps 654 mmHg 91%
    22:00 +6°C° 0 mm 1 mps 654 mmHg 90%
    23:00 +6°C° 0 mm 1 mps 654 mmHg 89%

    21 November, Thursday

    Time Temperature Precipitation Wind Pressure Humidity
    00:00 +6°C° 0 mm 1 mps 654 mmHg 88%
    01:00 +5°C° 0 mm 1 mps 654 mmHg 86%
    02:00 +5°C° 0 mm 1 mps 654 mmHg 85%
    03:00 +5°C° 0 mm 1 mps 654 mmHg 84%
    04:00 +5°C° 0 mm 1 mps 654 mmHg 82%
    05:00 +5°C° 0 mm 1 mps 654 mmHg 81%
    06:00 +5°C° 0 mm 1 mps 654 mmHg 79%
    07:00 +5°C° 0 mm 1 mps 654 mmHg 78%
    08:00 +5°C° 0 mm 1 mps 654 mmHg 77%
    09:00 +7°C° 0 mm 1 mps 655 mmHg 72%
    10:00 +9°C° 0 mm 1 mps 656 mmHg 67%
    11:00 +10°C° 0 mm 0 mps 657 mmHg 62%
    12:00 +11°C° 0 mm 1 mps 656 mmHg 61%
    13:00 +11°C° 0 mm 1 mps 656 mmHg 60%
    14:00 +12°C° 0 mm 1 mps 656 mmHg 59%
    15:00 +10°C° 0 mm 1 mps 656 mmHg 67%
    16:00 +9°C° 0 mm 1 mps 655 mmHg 76%
    17:00 +6°C° 0 mm 0 mps 655 mmHg 85%
    18:00 +6°C° 0 mm 0 mps 655 mmHg 87%
    19:00 +5°C° 0 mm 0 mps 655 mmHg 88%
    20:00 +5°C° 0 mm 0 mps 655 mmHg 90%
    21:00 +5°C° 0 mm 0 mps 655 mmHg 90%
    22:00 +4°C° 0 mm 0 mps 655 mmHg 90%
    23:00 +4°C° 0 mm 0 mps 655 mmHg 90%

    22 November, Friday

    Time Temperature Precipitation Wind Pressure Humidity
    00:00 +4°C° 0 mm 0 mps 655 mmHg 90%
    01:00 +5°C° 0 mm 1 mps 655 mmHg 90%
    02:00 +5°C° 0 mm 1 mps 655 mmHg 89%
    03:00 +5°C° 0 mm 1 mps 655 mmHg 89%
    04:00 +4°C° 0 mm 0 mps 655 mmHg 89%
    05:00 +3°C° 0 mm 0 mps 655 mmHg 89%
    06:00 +4°C° 0 mm 1 mps 656 mmHg 89%
    07:00 +4°C° 0 mm 1 mps 656 mmHg 89%
    08:00 +5°C° 0 mm 1 mps 656 mmHg 89%
    09:00 +6°C° 0 mm 1 mps 657 mmHg 82%
    10:00 +8°C° 0 mm 1 mps 658 mmHg 75%
    11:00 +10°C° 0 mm 1 mps 659 mmHg 69%
    12:00 +10°C° 0 mm 1 mps 659 mmHg 69%
    13:00 +10°C° 0 mm 1 mps 658 mmHg 70%
    14:00 +10°C° 0 mm 1 mps 658 mmHg 70%
    15:00 +9°C° 0.1 mm 1 mps 658 mmHg 77%
    16:00 +8°C° 0.1 mm 1 mps 658 mmHg 84%
    17:00 +7°C° 0.1 mm 1 mps 658 mmHg 91%
    18:00 +7°C° 0.1 mm 1 mps 658 mmHg 92%
    19:00 +7°C° 0.1 mm 1 mps 658 mmHg 93%
    20:00 +6°C° 0.1 mm 1 mps 658 mmHg 94%
    21:00 +6°C° 0 mm 1 mps 658 mmHg 94%
    22:00 +6°C° 0 mm 1 mps 659 mmHg 94%
    23:00 +5°C° 0 mm 0 mps 659 mmHg 94%
    Show more